Weather History for El Centro, CA

Change the Weather History Date:

Monday, August 12, 2013

  Actual Average Record
Temperature  
Mean Temperature 89 °F -  
Max Temperature 108 °F 104 °F 116 °F (2012)
Min Temperature 71 °F 79 °F 71 °F (2013)
Cooling Degree Days 24    
Growing Degree Days 39 (Base 50)    
Moisture  
Dew Point 38 °F    
Average Humidity 17    
Maximum Humidity 39    
Minimum Humidity 7    
Precipitation  
Precipitation 0.00 in - - ()
Sea Level Pressure  
Sea Level Pressure 29.81 in    
Wind  
Wind Speed 5 mph (SW)    
Max Wind Speed 10 mph    
Max Gust Speed -    
Visibility 10 miles    
Events      
Averages and records for this station are not official NWS values.
T = Trace of Precipitation, MM = Missing Value Source: NWS Daily Summary

Daily Weather History Graph

Daily Weather History Graph

Search for Another Location

Airport:

Trip Planner

Search our weather history database for the weather conditions in past years. The results will help you decide how hot, cold, wet, or windy it might be!

Date:

Astronomy

Aug. 12, 2013 Rise Set
Actual Time 6:04 AM PDT 7:30 PM PDT
Civil Twilight 5:37 AM PDT 7:56 PM PDT
Nautical Twilight 5:06 AM PDT 8:27 PM PDT
Astronomical Twilight 4:33 AM PDT 9:00 PM PDT
Moon 11:36 AM PDT (8/12) 10:50 PM PDT (8/12)
Length of Visible Light 14h 18m
Length of Day
13h 26m
Waxing Crescent, 32% of the Moon is Illuminated
Aug 12
Waxing Crescent
Aug 14
First Quarter
Aug 20
Full
Aug 28
Last Quarter
Sep 5
New

Hourly Weather History & Observations

Time (PDT) Temp. Dew Point Humidity Pressure Visibility Wind Dir Wind Speed Gust Speed Precip Events Conditions
12:56 AM 84.0 °F 35.1 °F 17% 29.80 in 10.0 mi NW 8.1 mph - N/A   Unknown
1:56 AM 81.0 °F 36.0 °F 20% 29.80 in 10.0 mi Calm Calm - N/A   Unknown
2:56 AM 79.0 °F 36.0 °F 21% 29.80 in 10.0 mi West 8.1 mph - N/A   Unknown
3:56 AM 80.1 °F 33.1 °F 18% 29.80 in 10.0 mi West 6.9 mph - N/A   Unknown
4:56 AM 73.0 °F 43.0 °F 34% 29.80 in 10.0 mi Calm Calm - N/A   Unknown
5:56 AM 71.1 °F 45.0 °F 39% 29.82 in 10.0 mi SSE 5.8 mph - N/A   Unknown
6:56 AM 75.9 °F 39.9 °F 27% 29.84 in 10.0 mi Calm Calm - N/A   Clear
7:56 AM 84.0 °F 37.9 °F 19% 29.85 in 10.0 mi Calm Calm - N/A   Clear
8:56 AM 90.0 °F 41.0 °F 18% 29.86 in 10.0 mi Calm Calm - N/A   Clear
9:56 AM 91.9 °F 43.0 °F 18% 29.87 in 10.0 mi West 4.6 mph - N/A   Clear
10:56 AM 96.1 °F 42.1 °F 15% 29.87 in 10.0 mi SSW 4.6 mph - N/A   Clear
11:56 AM 100.0 °F 37.0 °F 11% 29.85 in 10.0 mi Calm Calm - N/A   Clear
12:56 PM 102.9 °F 39.0 °F 11% 29.83 in 10.0 mi Variable 6.9 mph - N/A   Clear
1:56 PM 104.0 °F 36.0 °F 10% 29.81 in 10.0 mi Variable 5.8 mph - N/A   Clear
2:56 PM 106.0 °F 33.1 °F 8% 29.79 in 10.0 mi ESE 5.8 mph - N/A   Partly Cloudy
3:56 PM 105.1 °F 30.9 °F 8% 29.77 in 10.0 mi ESE 3.5 mph - N/A   Partly Cloudy
4:56 PM 107.1 °F 32.0 °F 7% 29.76 in 10.0 mi South 5.8 mph - N/A   Partly Cloudy
5:56 PM 106.0 °F 33.1 °F 8% 29.74 in 10.0 mi SSW 4.6 mph - N/A   Clear
6:56 PM 105.1 °F 33.1 °F 8% 29.74 in 10.0 mi Calm Calm - N/A   Clear
7:56 PM 97.0 °F 39.0 °F 13% 29.75 in 10.0 mi WSW 9.2 mph - N/A   Clear
8:56 PM 93.9 °F 42.1 °F 17% 29.78 in 10.0 mi WSW 10.4 mph - N/A   Clear
9:56 PM 91.0 °F 44.1 °F 20% 29.80 in 10.0 mi SSW 5.8 mph - N/A   Clear
10:56 PM 90.0 °F 42.1 °F 19% 29.81 in 10.0 mi SSW 5.8 mph - N/A   Clear
11:56 PM 87.1 °F 39.9 °F 19% 29.81 in 10.0 mi North - - N/A   Unknown